Weather History for Point Lay, AK

Change the Weather History Date:

Wednesday, March 19, 2014

  Actual Average Record
Temperature  
Mean Temperature 1 °F -  
Max Temperature 5 °F 0 °F 30 °F (2002)
Min Temperature -4 °F -9 °F -38 °F (2009)
Degree Days  
Heating Degree Days 64    
Moisture  
Dew Point -4 °F    
Average Humidity 80    
Maximum Humidity 85    
Minimum Humidity 72    
Precipitation  
Precipitation 0.00 in - - ()
Sea Level Pressure  
Sea Level Pressure 30.42 in    
Wind  
Wind Speed 19 mph (SSW)    
Max Wind Speed 26 mph    
Max Gust Speed -    
Visibility 6 miles    
Events Snow    
Averages and records for this station are not official NWS values.
T = Trace of Precipitation, MM = Missing Value Source: NWS Daily Summary

Daily Weather History Graph

Daily Weather History Graph

Search for Another Location

Airport:

Trip Planner

Search our weather history database for the weather conditions in past years. The results will help you decide how hot, cold, wet, or windy it might be!

Date:

Astronomy

Mar. 19, 2014 Rise Set
Actual Time 8:54 AM AKDT 9:07 PM AKDT
Civil Twilight 7:54 AM AKDT 10:07 PM AKDT
Nautical Twilight 6:37 AM AKDT 11:24 PM AKDT
Astronomical Twilight 4:57 AM AKDT 1:09 AM AKDT
Moon 1:10 AM AKDT (3/19) 8:42 AM AKDT (3/19)
Length of Visible Light 14h 13m
Length of Day
12h 12m
Waning Gibbous, 90% of the Moon is Illuminated
Mar 19
Waning Gibbous
Mar 23
Last Quarter
Mar 30
New
Apr 7
First Quarter
Apr 14
Full

Hourly Weather History & Observations

Time (AKDT) Temp. Windchill Dew Point Humidity Pressure Visibility Wind Dir Wind Speed Gust Speed Precip Events Conditions
12:06 AM 6.8 °F -14.7 °F 1.4 °F 79% 30.17 in 1.8 mi SW 24.2 mph - 0.00 in Snow Light Snow
12:19 AM 6.8 °F -13.4 °F 1.4 °F 79% 30.18 in 2.5 mi SW 20.7 mph - 0.00 in Snow Light Snow
12:30 AM 6.8 °F -12.9 °F 1.4 °F 79% 30.19 in 3.0 mi SW 19.6 mph - 0.00 in Snow Light Snow
12:38 AM 6.8 °F -14.3 °F 1.4 °F 79% 30.19 in 2.0 mi SW 23.0 mph - 0.00 in Snow Light Snow
12:43 AM 6.8 °F -15.1 °F 1.4 °F 79% 30.20 in 1.2 mi SW 25.3 mph - 0.00 in Snow Light Snow
12:56 AM 5.0 °F -16.2 °F 1.4 °F 85% 30.21 in 1.5 mi SW 21.9 mph - N/A Snow Light Snow
1:05 AM 5.0 °F -15.7 °F 1.4 °F 85% 30.21 in 3.0 mi SW 20.7 mph - 0.00 in Snow Light Snow
1:15 AM 5.0 °F -16.2 °F -0.4 °F 78% 30.22 in 2.5 mi SW 21.9 mph - 0.00 in Snow Light Snow
1:27 AM 3.2 °F -18.1 °F -0.4 °F 85% 30.23 in 3.0 mi SW 20.7 mph - 0.00 in   Clear
1:56 AM 3.0 °F -18.3 °F -0.9 °F 84% 30.26 in 6.0 mi SW 20.7 mph - 0.00 in   Clear
2:56 AM 1.0 °F -19.9 °F -4.0 °F 79% 30.30 in 6.0 mi SW 18.4 mph - N/A   Haze
3:56 AM 0.1 °F -21.6 °F -4.0 °F 83% 30.32 in 6.0 mi SW 19.6 mph - N/A   Clear
4:56 AM 2.1 °F -20.5 °F -1.8 °F 83% 30.35 in 1.8 mi SW 23.0 mph - N/A   Mostly Cloudy
5:06 AM 1.4 °F -21.9 °F -2.2 °F 85% 30.35 in 2.0 mi SW 24.2 mph - N/A   Overcast
5:20 AM 1.4 °F -22.3 °F -2.2 °F 85% 30.35 in 3.0 mi SW 25.3 mph - N/A   Overcast
5:38 AM -0.4 °F -25.2 °F -4.0 °F 85% 30.36 in 2.5 mi SW 26.5 mph - N/A   Overcast
5:48 AM -0.4 °F -23.3 °F -4.0 °F 85% 30.37 in 3.0 mi SW 21.9 mph - N/A   Overcast
5:56 AM 0.1 °F -22.6 °F -4.9 °F 79% 30.38 in 4.0 mi SW 21.9 mph - N/A   Haze
6:34 AM -0.4 °F -22.3 °F -5.8 °F 78% 30.40 in 4.0 mi SW 19.6 mph - N/A   Haze
6:56 AM -1.8 °F -24.2 °F -6.9 °F 79% 30.42 in 7.0 mi SW 19.6 mph - N/A   Partly Cloudy
7:56 AM -2.9 °F -23.8 °F -8.0 °F 79% 30.46 in 8.0 mi SW 16.1 mph - N/A   Scattered Clouds
8:06 AM -2.2 °F -22.2 °F -7.6 °F 78% 30.45 in 9.0 mi SW 15.0 mph - N/A   Mostly Cloudy
8:36 AM -4.0 °F -26.4 °F -7.6 °F 85% 30.46 in 5.0 mi SW 18.4 mph - N/A   Scattered Clouds
8:56 AM -4.0 °F -25.8 °F -8.0 °F 83% 30.49 in 5.0 mi SW 17.3 mph - N/A   Partly Cloudy
9:56 AM -4.9 °F -24.1 °F -8.9 °F 83% 30.51 in 10.0 mi SW 12.7 mph - N/A   Clear
10:56 AM -4.0 °F -19.0 °F -8.0 °F 83% 30.53 in 10.0 mi SSW 8.1 mph - N/A   Clear
11:56 AM -4.0 °F -17.8 °F -8.9 °F 80% 30.56 in 10.0 mi SSW 6.9 mph - N/A   Clear
12:56 PM -4.9 °F -17.4 °F -8.9 °F 83% 30.58 in 10.0 mi South 5.8 mph - N/A   Clear
1:56 PM -2.9 °F -15.0 °F -8.0 °F 79% 30.58 in 10.0 mi South 5.8 mph - N/A   Clear
2:56 PM 0.1 °F -14.0 °F -6.0 °F 75% 30.59 in 10.0 mi SSE 8.1 mph - N/A   Clear
3:56 PM 2.1 °F -11.6 °F -4.9 °F 72% 30.59 in 10.0 mi SSE 8.1 mph - N/A   Clear
4:56 PM 3.0 °F -10.5 °F -2.9 °F 76% 30.60 in 10.0 mi SE 8.1 mph - N/A   Clear
5:56 PM 4.1 °F -10.2 °F -2.9 °F 73% 30.60 in 10.0 mi SE 9.2 mph - N/A   Clear
6:56 PM 2.1 °F -13.6 °F -4.0 °F 76% 30.60 in 10.0 mi SSE 10.4 mph - N/A   Clear
7:56 PM 1.0 °F -14.0 °F -4.9 °F 76% 30.61 in 10.0 mi SE 9.2 mph - N/A   Clear
8:56 PM 1.0 °F -14.9 °F -4.9 °F 76% 30.61 in 10.0 mi SSE 10.4 mph - N/A   Clear
9:56 PM 1.0 °F -14.9 °F -4.9 °F 76% 30.61 in 10.0 mi SE 10.4 mph - N/A   Clear
10:56 PM -0.9 °F -15.3 °F -6.9 °F 76% 30.62 in 10.0 mi SE 8.1 mph - N/A   Clear
11:56 PM 1.0 °F - -4.0 °F 79% 30.61 in 10.0 mi North - - N/A   Clear